| time (UTC) | temp F | wind direction | speed MPH | gust MPH | rain 1hr in | rain 24hr in | rain mn in | humidity % | barometer mb |
| 20260503191915 | 61 | 22 | 9.0 | 23.0 | 0.00 | 0.01 | 0.01 | 56 | 1008.6 |
| 20260503191429 | 61 | 19 | 12.0 | 23.0 | 0.00 | 0.01 | 0.01 | 55 | 1008.8 |
| 20260503190939 | 60 | 23 | 14.0 | 20.0 | 0.00 | 0.01 | 0.01 | 57 | 1008.8 |
| 20260503190426 | 60 | 18 | 8.0 | 17.0 | 0.00 | 0.01 | 0.01 | 63 | 1009.0 |
| 20260503185935 | 59 | 16 | 9.0 | 17.0 | 0.00 | 0.01 | 0.01 | 62 | 1009.0 |
| 20260503185442 | 58 | 16 | 10.0 | 18.0 | 0.00 | 0.01 | 0.01 | 63 | 1009.2 |
| 20260503184930 | 58 | 15 | 10.0 | 17.0 | 0.00 | 0.01 | 0.01 | 64 | 1009.4 |
| 20260503184441 | 58 | 15 | 8.0 | 19.0 | 0.00 | 0.01 | 0.01 | 64 | 1009.5 |
| 20260503183928 | 57 | 16 | 11.0 | 19.0 | 0.00 | 0.01 | 0.01 | 63 | 1009.5 |
| 20260503183418 | 57 | 18 | 6.0 | 14.0 | 0.00 | 0.01 | 0.01 | 68 | 1009.6 |
| 20260503182953 | 56 | 20 | 7.0 | 14.0 | 0.00 | 0.01 | 0.01 | 69 | 1009.7 |
| 20260503182441 | 55 | 26 | 7.0 | 13.0 | 0.00 | 0.01 | 0.01 | 71 | 1009.7 |
| 20260503181926 | 54 | 15 | 5.0 | 11.0 | 0.00 | 0.01 | 0.01 | 74 | 1009.8 |
| 20260503181416 | 54 | 16 | 5.0 | 9.0 | 0.01 | 0.01 | 0.01 | 77 | 1010.0 |
| 20260503180923 | 53 | 16 | 5.0 | 14.0 | 0.01 | 0.01 | 0.01 | 77 | 1010.2 |
| 20260503180413 | 52 | 17 | 5.0 | 14.0 | 0.01 | 0.01 | 0.01 | 78 | 1010.4 |
| 20260503175927 | 52 | 17 | 4.0 | 8.0 | 0.01 | 0.01 | 0.01 | 77 | 1010.6 |
| 20260503175436 | 51 | 14 | 5.0 | 11.0 | 0.01 | 0.01 | 0.01 | 79 | 1010.6 |
| 20260503174920 | 51 | 14 | 5.0 | 11.0 | 0.01 | 0.01 | 0.01 | 79 | 1010.8 |
| 20260503174428 | 50 | 15 | 7.0 | 11.0 | 0.01 | 0.01 | 0.01 | 80 | 1011.1 |
| 20260503173916 | 50 | 15 | 5.0 | 20.0 | 0.01 | 0.01 | 0.01 | 81 | 1011.2 |
| 20260503173424 | 50 | 16 | 12.0 | 20.0 | 0.01 | 0.01 | 0.01 | 80 | 1011.7 |
| 20260503172929 | 49 | 15 | 4.0 | 9.0 | 0.01 | 0.01 | 0.01 | 85 | 1012.0 |
| 20260503172414 | 49 | 15 | 5.0 | 13.0 | 0.01 | 0.01 | 0.01 | 84 | 1012.1 |
| 20260503171922 | 49 | 17 | 7.0 | 13.0 | 0.01 | 0.01 | 0.01 | 84 | 1012.3 |
| 20260503171430 | 49 | 17 | 6.0 | 13.0 | 0.00 | 0.00 | 0.00 | 84 | 1012.6 |
| 20260503170919 | 49 | 18 | 7.0 | 13.0 | 0.00 | 0.00 | 0.00 | 84 | 1012.8 |
| 20260503170427 | 49 | 14 | 4.0 | 10.0 | 0.00 | 0.00 | 0.00 | 85 | 1012.5 |
| 20260503150924 | 54 | 15 | 8.0 | 12.0 | 0.00 | 0.00 | 0.00 | 62 | 1013.8 |
| 20260503150430 | 53 | 14 | 4.0 | 12.0 | 0.00 | 0.00 | 0.00 | 63 | 1013.7 |
| 20260503130931 | 49 | 15 | 4.0 | 10.0 | 0.00 | 0.00 | 0.00 | 64 | 1014.4 |
| 20260503130418 | 49 | 16 | 5.0 | 10.0 | 0.00 | 0.00 | 0.00 | 64 | 1014.5 |
| 20260503110442 | 45 | 28 | 3.0 | 8.0 | 0.00 | 0.00 | 0.00 | 67 | 1014.2 |
| 20260503090423 | 44 | 24 | 2.0 | 4.0 | 0.00 | 0.00 | 0.00 | 66 | 1014.7 |
| 20260503081424 | 45 | 28 | 3.0 | 6.0 | 0.00 | 0.00 | 0.00 | 62 | 1014.9 |
| 20260503080934 | 45 | 26 | 3.0 | 8.0 | 0.00 | 0.00 | 0.00 | 62 | 1014.9 |
| 20260503080442 | 45 | 28 | 4.0 | 8.0 | 0.00 | 0.00 | 0.00 | 61 | 1015.0 |
| 20260503072926 | 45 | 26 | 2.0 | 8.0 | 0.00 | 0.00 | 0.00 | 61 | 1014.8 |
| 20260503072416 | 45 | 25 | 3.0 | 6.0 | 0.00 | 0.00 | 0.00 | 60 | 1014.8 |
| 20260503071925 | 45 | 26 | 2.0 | 8.0 | 0.00 | 0.00 | 0.00 | 61 | 1014.9 |
| 20260503071416 | 45 | 30 | 3.0 | 8.0 | 0.00 | 0.00 | 0.00 | 60 | 1014.9 |
| 20260503070954 | 45 | 26 | 3.0 | 6.0 | 0.00 | 0.00 | 0.00 | 61 | 1015.0 |
| 20260503070421 | 45 | 31 | 3.0 | 4.0 | 0.00 | 0.00 | 0.00 | 61 | 1014.9 |
| 20260503054915 | 46 | 22 | 2.0 | 4.0 | 0.00 | 0.00 | 0.00 | 58 | 1015.7 |
| 20260503054447 | 46 | 19 | 2.0 | 4.0 | 0.00 | 0.00 | 0.00 | 58 | 1015.8 |
| 20260503053933 | 46 | 22 | 2.0 | 4.0 | 0.00 | 0.00 | 0.00 | 57 | 1015.9 |
| 20260503053421 | 47 | 24 | 2.0 | 6.0 | 0.00 | 0.00 | 0.00 | 57 | 1015.9 |
| 20260503052930 | 47 | 21 | 2.0 | 8.0 | 0.00 | 0.00 | 0.00 | 56 | 1015.9 |
| 20260503052417 | 47 | 24 | 3.0 | 9.0 | 0.00 | 0.00 | 0.00 | 56 | 1016.0 |
| 20260503051924 | 47 | 33 | 3.0 | 9.0 | 0.00 | 0.00 | 0.00 | 56 | 1016.0 |
| 20260503051414 | 47 | 32 | 3.0 | 6.0 | 0.00 | 0.00 | 0.00 | 56 | 1016.1 |
| 20260503050921 | 47 | 30 | 3.0 | 4.0 | 0.00 | 0.00 | 0.00 | 56 | 1016.0 |
| 20260503050431 | 47 | 29 | 3.0 | 6.0 | 0.00 | 0.00 | 0.00 | 57 | 1016.0 |
| 20260503045930 | 47 | 28 | 2.0 | 6.0 | 0.00 | 0.00 | 0.00 | 57 | 1016.1 |
| 20260503045416 | 47 | 24 | 3.0 | 5.0 | 0.00 | 0.00 | 0.00 | 57 | 1016.2 |
| 20260503044925 | 47 | 22 | 3.0 | 5.0 | 0.00 | 0.00 | 0.00 | 57 | 1016.1 |
| 20260503044417 | 47 | 24 | 3.0 | 4.0 | 0.00 | 0.00 | 0.00 | 57 | 1016.1 |
| 20260503043954 | 47 | 24 | 2.0 | 4.0 | 0.00 | 0.00 | 0.00 | 57 | 1016.1 |
| 20260503043440 | 47 | 25 | 3.0 | 6.0 | 0.00 | 0.00 | 0.00 | 56 | 1016.1 |
| 20260503042923 | 47 | 22 | 3.0 | 6.0 | 0.00 | 0.00 | 0.00 | 56 | 1016.1 |
| 20260503042431 | 47 | 21 | 2.0 | 5.0 | 0.00 | 0.00 | 0.00 | 57 | 1016.0 |
| 20260503041916 | 47 | 23 | 2.0 | 5.0 | 0.00 | 0.00 | 0.00 | 57 | 1016.0 |
| 20260503041426 | 47 | 22 | 3.0 | 5.0 | 0.00 | 0.00 | 0.00 | 57 | 1016.1 |
| 20260503040916 | 47 | 19 | 2.0 | 4.0 | 0.00 | 0.00 | 0.00 | 57 | 1016.1 |
| 20260503040425 | 47 | 22 | 3.0 | 4.0 | 0.00 | 0.00 | 0.00 | 57 | 1016.1 |
| 20260503035936 | 47 | 28 | 2.0 | 4.0 | 0.00 | 0.00 | 0.00 | 57 | 1016.1 |
| 20260503035421 | 47 | 21 | 2.0 | 4.0 | 0.00 | 0.00 | 0.00 | 58 | 1016.1 |
| 20260503034924 | 47 | 21 | 2.0 | 4.0 | 0.00 | 0.00 | 0.00 | 57 | 1016.1 |
| 20260503034436 | 47 | 19 | 3.0 | 4.0 | 0.00 | 0.00 | 0.00 | 57 | 1016.2 |
| 20260503033944 | 48 | 20 | 2.0 | 3.0 | 0.00 | 0.00 | 0.00 | 57 | 1016.2 |
| 20260503033432 | 48 | 19 | 2.0 | 3.0 | 0.00 | 0.00 | 0.00 | 57 | 1016.2 |
| 20260503032921 | 48 | 20 | 2.0 | 4.0 | 0.00 | 0.00 | 0.00 | 56 | 1016.3 |
| 20260503032429 | 48 | 22 | 2.0 | 4.0 | 0.00 | 0.00 | 0.00 | 56 | 1016.3 |
| 20260503031915 | 48 | 22 | 2.0 | 4.0 | 0.00 | 0.00 | 0.00 | 55 | 1016.3 |
| 20260503031448 | 48 | 21 | 2.0 | 4.0 | 0.00 | 0.00 | 0.00 | 55 | 1016.3 |
| 20260503030422 | 48 | 19 | 2.0 | 3.0 | 0.00 | 0.00 | 0.00 | 55 | 1016.3 |
| 20260503025934 | 48 | 18 | 2.0 | 3.0 | 0.00 | 0.00 | 0.00 | 54 | 1016.4 |
| 20260503025423 | 48 | 18 | 2.0 | 3.0 | 0.00 | 0.00 | 0.00 | 54 | 1016.4 |
| 20260503024934 | 49 | 17 | 2.0 | 4.0 | 0.00 | 0.00 | 0.00 | 54 | 1016.3 |
| 20260503024427 | 49 | 19 | 2.0 | 4.0 | 0.00 | 0.00 | 0.00 | 54 | 1016.3 |
| 20260503023936 | 49 | 17 | 2.0 | 4.0 | 0.00 | 0.00 | 0.00 | 54 | 1016.3 |
| 20260503023417 | 49 | 19 | 2.0 | 4.0 | 0.00 | 0.00 | 0.00 | 53 | 1016.4 |
| 20260503022930 | 49 | 19 | 2.0 | 3.0 | 0.00 | 0.00 | 0.00 | 53 | 1016.4 |
| 20260503022435 | 49 | 17 | 2.0 | 3.0 | 0.00 | 0.00 | 0.00 | 53 | 1016.4 |
| 20260503021942 | 49 | 19 | 2.0 | 3.0 | 0.00 | 0.00 | 0.00 | 52 | 1016.4 |
| 20260503021426 | 50 | 22 | 2.0 | 3.0 | 0.00 | 0.00 | 0.00 | 52 | 1016.4 |
| 20260503020935 | 50 | 24 | 1.0 | 3.0 | 0.00 | 0.00 | 0.00 | 51 | 1016.3 |
| 20260503020444 | 50 | 24 | 1.0 | 3.0 | 0.00 | 0.00 | 0.00 | 51 | 1016.3 |
| 20260503015916 | 50 | 19 | 1.0 | 2.0 | 0.00 | 0.00 | 0.00 | 50 | 1016.3 |
| 20260503015428 | 50 | 19 | 2.0 | 3.0 | 0.00 | 0.00 | 0.00 | 50 | 1016.3 |
| 20260503014938 | 51 | 17 | 1.0 | 3.0 | 0.00 | 0.00 | 0.00 | 49 | 1016.2 |
| 20260503014424 | 51 | 17 | 1.0 | 3.0 | 0.00 | 0.00 | 0.00 | 49 | 1016.2 |
| 20260503013933 | 51 | 18 | 2.0 | 3.0 | 0.00 | 0.00 | 0.00 | 49 | 1016.1 |
| 20260503013439 | 51 | 19 | 2.0 | 3.0 | 0.00 | 0.00 | 0.00 | 48 | 1016.0 |
| 20260503012928 | 52 | 20 | 0.0 | 0.0 | 0.00 | 0.00 | 0.00 | 48 | 1015.9 |
| 20260503012435 | 52 | 17 | 0.0 | 0.0 | 0.00 | 0.00 | 0.00 | 47 | 1016.0 |
| 20260503011923 | 52 | 17 | 0.0 | 0.0 | 0.00 | 0.00 | 0.00 | 47 | 1015.9 |
| 20260503011415 | 52 | 17 | 0.0 | 2.0 | 0.00 | 0.00 | 0.00 | 46 | 1016.0 |
| 20260503010927 | 53 | 16 | 0.0 | 2.0 | 0.00 | 0.00 | 0.00 | 46 | 1016.0 |
| 20260503010436 | 53 | 16 | 1.0 | 2.0 | 0.00 | 0.00 | 0.00 | 45 | 1016.0 |
| 20260503005942 | 53 | 16 | 1.0 | 2.0 | 0.00 | 0.00 | 0.00 | 45 | 1016.0 |
| 20260503005456 | 53 | 15 | 0.0 | 2.0 | 0.00 | 0.00 | 0.00 | 44 | 1016.1 |
| 20260503004922 | 54 | 15 | 1.0 | 3.0 | 0.00 | 0.00 | 0.00 | 43 | 1016.0 |
| 20260503004449 | 54 | 15 | 2.0 | 3.0 | 0.00 | 0.00 | 0.00 | 43 | 1016.0 |
| 20260503003936 | 54 | 15 | 0.0 | 3.0 | 0.00 | 0.00 | 0.00 | 43 | 1016.1 |
| 20260503003424 | 54 | 15 | 0.0 | 3.0 | 0.00 | 0.00 | 0.00 | 43 | 1016.0 |
| 20260503002934 | 54 | 15 | 1.0 | 4.0 | 0.00 | 0.00 | 0.00 | 42 | 1016.0 |
| 20260503002440 | 54 | 16 | 2.0 | 4.0 | 0.00 | 0.00 | 0.00 | 42 | 1016.0 |
| 20260503001947 | 55 | 16 | 3.0 | 6.0 | 0.00 | 0.00 | 0.00 | 42 | 1016.1 |
| 20260503001417 | 55 | 15 | 3.0 | 7.0 | 0.00 | 0.00 | 0.00 | 42 | 1016.1 |
| 20260503000926 | 55 | 15 | 2.0 | 3.0 | 0.00 | 0.00 | 0.00 | 42 | 1016.0 |
| 20260503000437 | 55 | 15 | 0.0 | 5.0 | 0.00 | 0.00 | 0.00 | 43 | 1016.2 |
| 20260502235923 | 55 | 15 | 1.0 | 5.0 | 0.00 | 0.00 | 0.00 | 41 | 1016.2 |
| 20260502235430 | 55 | 15 | 1.0 | 4.0 | 0.00 | 0.00 | 0.00 | 42 | 1016.2 |
| 20260502234918 | 55 | 15 | 2.0 | 3.0 | 0.00 | 0.00 | 0.00 | 42 | 1016.1 |
| 20260502234429 | 55 | 15 | 1.0 | 3.0 | 0.00 | 0.00 | 0.00 | 42 | 1016.2 |
| 20260502233916 | 55 | 15 | 1.0 | 6.0 | 0.00 | 0.00 | 0.00 | 43 | 1016.3 |
| 20260502233453 | 55 | 15 | 3.0 | 6.0 | 0.00 | 0.00 | 0.00 | 42 | 1016.5 |
| 20260502232923 | 55 | 15 | 2.0 | 7.0 | 0.00 | 0.00 | 0.00 | 42 | 1016.4 |
| 20260502232431 | 56 | 15 | 2.0 | 6.0 | 0.00 | 0.00 | 0.00 | 41 | 1016.5 |
| 20260502231940 | 56 | 17 | 3.0 | 6.0 | 0.00 | 0.00 | 0.00 | 41 | 1016.5 |
| 20260502231456 | 56 | 22 | 2.0 | 5.0 | 0.00 | 0.00 | 0.00 | 43 | 1016.5 |
| 20260502230924 | 56 | 16 | 2.0 | 5.0 | 0.00 | 0.00 | 0.00 | 44 | 1016.5 |
| 20260502230431 | 55 | 16 | 1.0 | 3.0 | 0.00 | 0.00 | 0.00 | 43 | 1016.6 |
| 20260502225936 | 55 | 16 | 1.0 | 4.0 | 0.00 | 0.00 | 0.00 | 44 | 1016.6 |
| 20260502225454 | 55 | 15 | 1.0 | 6.0 | 0.00 | 0.00 | 0.00 | 42 | 1016.6 |
| 20260502224943 | 56 | 17 | 2.0 | 6.0 | 0.00 | 0.00 | 0.00 | 41 | 1016.7 |
| 20260502224427 | 56 | 16 | 3.0 | 5.0 | 0.00 | 0.00 | 0.00 | 42 | 1016.6 |
| 20260502223917 | 56 | 17 | 3.0 | 5.0 | 0.00 | 0.00 | 0.00 | 41 | 1016.6 |
| 20260502223451 | 56 | 17 | 2.0 | 8.0 | 0.00 | 0.00 | 0.00 | 42 | 1016.5 |
| 20260502222922 | 56 | 17 | 4.0 | 8.0 | 0.00 | 0.00 | 0.00 | 42 | 1016.6 |
| 20260502222428 | 56 | 16 | 2.0 | 8.0 | 0.00 | 0.00 | 0.00 | 40 | 1016.6 |
| 20260502221936 | 56 | 20 | 3.0 | 8.0 | 0.00 | 0.00 | 0.00 | 41 | 1016.6 |
| 20260502221455 | 57 | 30 | 2.0 | 5.0 | 0.00 | 0.00 | 0.00 | 41 | 1016.6 |
| 20260502220944 | 56 | 360 | 2.0 | 8.0 | 0.00 | 0.00 | 0.00 | 42 | 1016.8 |
| 20260502215937 | 56 | 22 | 4.0 | 9.0 | 0.00 | 0.00 | 0.00 | 41 | 1016.7 |
| 20260502215446 | 56 | 22 | 2.0 | 9.0 | 0.00 | 0.00 | 0.00 | 42 | 1016.8 |
| 20260502214931 | 56 | 16 | 4.0 | 9.0 | 0.00 | 0.00 | 0.00 | 41 | 1016.9 |
| 20260502214421 | 56 | 19 | 4.0 | 10.0 | 0.00 | 0.00 | 0.00 | 42 | 1016.8 |
| 20260502213927 | 56 | 26 | 4.0 | 10.0 | 0.00 | 0.00 | 0.00 | 41 | 1016.8 |
| 20260502213435 | 56 | 26 | 2.0 | 5.0 | 0.00 | 0.00 | 0.00 | 44 | 1016.8 |
| 20260502212925 | 56 | 25 | 3.0 | 13.0 | 0.00 | 0.00 | 0.00 | 45 | 1016.9 |
| 20260502212434 | 55 | 274 | 6.0 | 13.0 | 0.00 | 0.00 | 0.00 | 45 | 1016.9 |
| 20260502211921 | 55 | 303 | 2.0 | 4.0 | 0.00 | 0.00 | 0.00 | 44 | 1016.9 |
| 20260502211432 | 54 | 334 | 1.0 | 3.0 | 0.00 | 0.00 | 0.00 | 44 | 1017.0 |
| 20260502210940 | 54 | 218 | 1.0 | 3.0 | 0.00 | 0.00 | 0.00 | 45 | 1016.9 |
| 20260502210447 | 54 | 217 | 2.0 | 5.0 | 0.00 | 0.00 | 0.00 | 46 | 1017.1 |
| 20260502205929 | 54 | 216 | 2.0 | 5.0 | 0.00 | 0.00 | 0.00 | 45 | 1017.2 |
| 20260502205417 | 54 | 282 | 2.0 | 7.0 | 0.00 | 0.00 | 0.00 | 44 | 1017.1 |
| 20260502204927 | 55 | 271 | 3.0 | 7.0 | 0.00 | 0.00 | 0.00 | 44 | 1017.2 |
| 20260502204418 | 56 | 294 | 2.0 | 6.0 | 0.00 | 0.00 | 0.00 | 44 | 1017.2 |
| 20260502203955 | 56 | 233 | 3.0 | 6.0 | 0.00 | 0.00 | 0.00 | 45 | 1017.1 |
| 20260502203444 | 56 | 307 | 2.0 | 7.0 | 0.00 | 0.00 | 0.00 | 45 | 1017.1 |
| 20260502202945 | 55 | 265 | 3.0 | 7.0 | 0.00 | 0.00 | 0.00 | 43 | 1017.2 |
| 20260502202431 | 55 | 234 | 2.0 | 7.0 | 0.00 | 0.00 | 0.00 | 47 | 1017.2 |
| 20260502201920 | 54 | 26 | 2.0 | 5.0 | 0.00 | 0.00 | 0.00 | 45 | 1017.4 |
| 20260502201452 | 54 | 311 | 2.0 | 9.0 | 0.00 | 0.00 | 0.00 | 44 | 1017.4 |
| 20260502200918 | 55 | 298 | 4.0 | 9.0 | 0.00 | 0.00 | 0.00 | 43 | 1017.4 |
| 20260502200423 | 54 | 348 | 2.0 | 9.0 | 0.00 | 0.00 | 0.00 | 44 | 1017.6 |
| 20260502195916 | 54 | 292 | 4.0 | 9.0 | 0.00 | 0.00 | 0.00 | 45 | 1017.7 |
| 20260502195452 | 54 | 277 | 3.0 | 7.0 | 0.00 | 0.00 | 0.00 | 46 | 1017.6 |
| 20260502194918 | 53 | 249 | 2.0 | 6.0 | 0.00 | 0.00 | 0.00 | 46 | 1017.7 |
| 20260502194427 | 53 | 306 | 3.0 | 8.0 | 0.00 | 0.00 | 0.00 | 45 | 1017.8 |
| 20260502193915 | 53 | 351 | 3.0 | 8.0 | 0.00 | 0.00 | 0.00 | 45 | 1017.9 |
| 20260502193431 | 53 | 309 | 4.0 | 8.0 | 0.00 | 0.00 | 0.00 | 44 | 1018.0 |
| 20260502192943 | 54 | 317 | 2.0 | 7.0 | 0.00 | 0.00 | 0.00 | 43 | 1018.0 |
| 20260502192430 | 54 | 326 | 2.0 | 5.0 | 0.00 | 0.00 | 0.00 | 42 | 1018.0 |